Weather History for Gainesville, FL

Change the Weather History Date:

Thursday, January 3, 2013

  Actual Average Record
Temperature  
Mean Temperature 57 °F 54 °F  
Max Temperature 64 °F 66 °F 84 °F (1947)
Min Temperature 49 °F 42 °F 15 °F (1928)
Degree Days  
Heating Degree Days 8 11  
Month to date heating degree days 12 33  
Since 1 July heating degree days 404 490  
Cooling Degree Days 0 0  
Month to date cooling degree days 3 0  
Year to date cooling degree days 3 0  
Growing Degree Days 6 (Base 50)    
Moisture  
Dew Point 55 °F    
Average Humidity 94    
Maximum Humidity 100    
Minimum Humidity 87    
Precipitation  
Precipitation 0.15 in 0.08 in 1.88 in (1903)
Month to date precipitation 0.15 0.25  
Year to date precipitation 0.15 0.25  
Snow  
Snow 0.00 in 0.00 in 0.00 in ()
Month to date snowfall 0.0 0.0  
Since 1 July snowfall 0.0 0.0  
Snow Depth 0.00 in    
Sea Level Pressure  
Sea Level Pressure 30.15 in    
Wind  
Wind Speed 6 mph (NNE)    
Max Wind Speed 17 mph    
Max Gust Speed 22 mph    
Visibility 6 miles    
Events Rain    
T = Trace of Precipitation, MM = Missing Value Source: NWS Daily Summary

Daily Weather History Graph

Daily Weather History Graph

Search for Another Location

Airport:

Trip Planner

Search our weather history database for the weather conditions in past years. The results will help you decide how hot, cold, wet, or windy it might be!

Date:

Astronomy

Jan. 03, 2013 Rise Set
Actual Time 7:24 AM EST 5:42 PM EST
Civil Twilight 6:58 AM EST 6:09 PM EST
Nautical Twilight 6:29 AM EST 6:38 PM EST
Astronomical Twilight 6:00 AM EST 7:07 PM EST
Moon 11:45 PM EST (1/3) 11:04 AM EST (1/3)
Length of Visible Light 11h 10m
Length of Day
10h 18m
Waning Gibbous, 65% of the Moon is Illuminated
Jan 3
Waning Gibbous
Jan 4
Last Quarter
Jan 11
New
Jan 18
First Quarter
Jan 26
Full

Hourly Weather History & Observations

Time (EST) Temp. Dew Point Humidity Pressure Visibility Wind Dir Wind Speed Gust Speed Precip Events Conditions
12:53 AM 64.0 °F 61.0 °F 90% 30.06 in 10.0 mi Calm Calm - N/A   Overcast
1:33 AM 64.4 °F 60.8 °F 88% 30.07 in 8.0 mi Calm Calm - N/A   Overcast
1:53 AM 64.0 °F 61.0 °F 90% 30.07 in 9.0 mi NNW 6.9 mph - N/A   Overcast
2:53 AM 62.1 °F 60.1 °F 93% 30.06 in 5.0 mi North 4.6 mph - N/A   Overcast
3:53 AM 61.0 °F 60.1 °F 97% 30.06 in 10.0 mi NNE 3.5 mph - N/A   Overcast
4:53 AM 61.0 °F 59.0 °F 93% 30.06 in 5.0 mi North 3.5 mph - N/A   Overcast
5:53 AM 60.1 °F 59.0 °F 96% 30.07 in 7.0 mi NNE 4.6 mph - N/A   Overcast
6:53 AM 60.1 °F 59.0 °F 96% 30.09 in 9.0 mi North 4.6 mph - N/A   Overcast
7:53 AM 60.1 °F 59.0 °F 96% 30.12 in 3.0 mi North 4.6 mph - N/A   Overcast
8:00 AM 60.8 °F 59.0 °F 94% 30.11 in 2.0 mi NNE 4.6 mph - N/A   Overcast
8:20 AM 60.8 °F 59.0 °F 94% 30.12 in 1.2 mi North 6.9 mph - N/A   Overcast
8:53 AM 59.0 °F 57.9 °F 96% 30.12 in 1.5 mi NNE 9.2 mph - N/A   Overcast
9:11 AM 59.0 °F 57.2 °F 94% 30.13 in 2.0 mi NNE 9.2 mph - N/A   Overcast
9:25 AM 59.0 °F 57.2 °F 94% 30.14 in 4.0 mi NNE 6.9 mph - N/A   Overcast
9:53 AM 59.0 °F 57.0 °F 93% 30.15 in 10.0 mi NE 9.2 mph - N/A   Overcast
10:53 AM 60.1 °F 57.0 °F 90% 30.17 in 10.0 mi NNE 4.6 mph - N/A   Overcast
11:53 AM 59.0 °F 55.9 °F 90% 30.16 in 10.0 mi North 5.8 mph - N/A   Overcast
12:36 PM 59.0 °F 55.4 °F 88% 30.14 in 2.0 mi North 5.8 mph - 0.03 in Rain Light Rain
12:46 PM 59.0 °F 55.4 °F 88% 30.14 in 3.0 mi North 6.9 mph - 0.03 in Rain Light Rain
12:53 PM 57.9 °F 55.9 °F 93% 30.14 in 4.0 mi North 8.1 mph - 0.03 in Rain Light Rain
1:05 PM 57.2 °F 55.4 °F 94% 30.13 in 3.0 mi North 9.2 mph - 0.01 in Rain Light Rain
1:13 PM 57.2 °F 55.4 °F 94% 30.13 in 2.5 mi North 6.9 mph - 0.02 in Rain Light Rain
1:53 PM 55.9 °F 53.1 °F 90% 30.13 in 4.0 mi North 13.8 mph 20.7 mph 0.04 in Rain Light Rain
2:14 PM 55.4 °F 53.6 °F 94% 30.13 in 10.0 mi NNE 10.4 mph - 0.01 in   Overcast
2:53 PM 57.0 °F 53.1 °F 87% 30.14 in 10.0 mi Calm Calm - 0.01 in   Overcast
3:53 PM 55.0 °F 52.0 °F 89% 30.15 in 3.0 mi NNE 5.8 mph - 0.01 in Rain Light Rain
4:43 PM 55.4 °F 53.6 °F 94% 30.16 in 4.0 mi ENE 5.8 mph - 0.01 in Rain Light Rain
4:53 PM 55.0 °F 53.1 °F 93% 30.16 in 4.0 mi NE 6.9 mph - 0.01 in Rain Light Rain
5:29 PM 55.4 °F 53.6 °F 94% 30.18 in 2.5 mi Calm Calm - 0.02 in Rain Light Rain
5:45 PM 55.4 °F 53.6 °F 94% 30.17 in 4.0 mi NNE 3.5 mph - 0.02 in Rain Light Rain
5:53 PM 55.0 °F 53.1 °F 93% 30.17 in 7.0 mi NNE 3.5 mph - 0.02 in Rain Light Rain
6:11 PM 55.4 °F 53.6 °F 94% 30.18 in 10.0 mi NE 3.5 mph - 0.00 in   Overcast
6:46 PM 55.4 °F 53.6 °F 94% 30.18 in 5.0 mi NE 5.8 mph - 0.01 in Rain Light Rain
6:53 PM 55.9 °F 54.0 °F 93% 30.18 in 6.0 mi NE 4.6 mph - 0.02 in Rain Light Rain
7:53 PM 53.1 °F 51.1 °F 93% 30.21 in 10.0 mi North 8.1 mph - 0.00 in   Overcast
8:53 PM 50.0 °F 48.0 °F 93% 30.23 in 10.0 mi North 8.1 mph - 0.00 in Rain Light Rain
9:03 PM 50.0 °F 46.4 °F 87% 30.24 in 9.0 mi NNW 5.8 mph - 0.00 in Rain Light Rain
9:53 PM 48.9 °F 46.9 °F 93% 30.25 in 9.0 mi NNE 6.9 mph - 0.01 in Rain Light Rain
10:53 PM 50.0 °F 46.9 °F 89% 30.22 in 10.0 mi ENE 4.6 mph - 0.00 in   Overcast
11:14 PM 50.0 °F 46.4 °F 87% 30.27 in 10.0 mi NNW 5.8 mph - N/A   Overcast
11:22 PM 50.0 °F 48.2 °F 94% 30.25 in 8.0 mi North 4.6 mph - N/A   Overcast
11:53 PM 50.0 °F 48.0 °F 93% 30.23 in 10.0 mi ENE 4.6 mph - N/A   Overcast